• In Latvia
  • List of Countries
  • For 7 days
  • Water Temperature
  • Satellite Maps
  • Weather Map
  • Weather Widgets
  • user-avatar
    Login

    Hourly Weather Ordino

    Today, 28 March, Tuesday

    Time Temperature Precipitation Wind Pressure Humidity
    00:00 -1°C° 0 mm 1 mps 634 mmHg 89%
    01:00 -1°C° 0 mm 1 mps 634 mmHg 88%
    02:00 -1°C° 0 mm 1 mps 634 mmHg 87%
    03:00 -2°C° 0 mm 1 mps 634 mmHg 86%
    04:00 -2°C° 0 mm 1 mps 634 mmHg 86%
    05:00 -1°C° 0 mm 1 mps 634 mmHg 85%
    06:00 -1°C° 0 mm 1 mps 634 mmHg 84%
    07:00 +2°C° 0 mm 1 mps 636 mmHg 78%
    08:00 +5°C° 0 mm 1 mps 637 mmHg 72%
    09:00 +7°C° 0 mm 0 mps 638 mmHg 65%
    10:00 +9°C° 0 mm 1 mps 639 mmHg 63%
    11:00 +10°C° 0 mm 1 mps 639 mmHg 60%
    12:00 +11°C° 0 mm 1 mps 640 mmHg 58%
    13:00 +11°C° 0 mm 1 mps 639 mmHg 60%
    14:00 +10°C° 0 mm 1 mps 639 mmHg 62%
    15:00 +10°C° 0 mm 1 mps 639 mmHg 64%
    16:00 +8°C° 0 mm 1 mps 639 mmHg 71%
    17:00 +7°C° 0 mm 1 mps 638 mmHg 79%
    18:00 +5°C° 0 mm 1 mps 637 mmHg 87%
    19:00 +4°C° 0 mm 1 mps 637 mmHg 89%
    20:00 +3°C° 0 mm 1 mps 637 mmHg 91%
    21:00 +2°C° 0 mm 1 mps 637 mmHg 93%
    22:00 +1°C° 0 mm 1 mps 637 mmHg 93%
    23:00 +1°C° 0 mm 1 mps 637 mmHg 93%

    Tomorrow, 29 March, Wednesday

    Time Temperature Precipitation Wind Pressure Humidity
    00:00 +1°C° 0 mm 1 mps 637 mmHg 93%
    01:00 0°C° 0 mm 1 mps 636 mmHg 92%
    02:00 0°C° 0 mm 1 mps 636 mmHg 91%
    03:00 0°C° 0 mm 1 mps 636 mmHg 91%
    04:00 0°C° 0 mm 1 mps 636 mmHg 89%
    05:00 0°C° 0 mm 1 mps 636 mmHg 88%
    06:00 0°C° 0 mm 1 mps 636 mmHg 87%
    07:00 +3°C° 0 mm 1 mps 637 mmHg 76%
    08:00 +6°C° 0 mm 0 mps 639 mmHg 64%
    09:00 +9°C° 0 mm 0 mps 640 mmHg 53%
    10:00 +11°C° 0 mm 1 mps 641 mmHg 51%
    11:00 +12°C° 0 mm 1 mps 641 mmHg 48%
    12:00 +13°C° 0 mm 1 mps 641 mmHg 45%
    13:00 +13°C° 0 mm 1 mps 640 mmHg 46%
    14:00 +13°C° 0 mm 1 mps 640 mmHg 47%
    15:00 +13°C° 0 mm 2 mps 640 mmHg 49%
    16:00 +11°C° 0 mm 1 mps 639 mmHg 60%
    17:00 +8°C° 0 mm 1 mps 638 mmHg 71%
    18:00 +6°C° 0 mm 1 mps 637 mmHg 82%
    19:00 +4°C° 0 mm 1 mps 637 mmHg 84%
    20:00 +3°C° 0 mm 1 mps 637 mmHg 86%
    21:00 +2°C° 0 mm 1 mps 636 mmHg 88%
    22:00 +2°C° 0 mm 1 mps 636 mmHg 88%
    23:00 +2°C° 0 mm 1 mps 636 mmHg 87%

    Day after tomorrow, 30 March, Thursday

    Time Temperature Precipitation Wind Pressure Humidity
    00:00 +2°C° 0 mm 1 mps 636 mmHg 87%
    01:00 +2°C° 0 mm 1 mps 636 mmHg 87%
    02:00 +2°C° 0 mm 1 mps 636 mmHg 87%
    03:00 +2°C° 0 mm 1 mps 636 mmHg 87%
    04:00 +2°C° 0 mm 1 mps 636 mmHg 87%
    05:00 +2°C° 0 mm 1 mps 636 mmHg 86%
    06:00 +2°C° 0 mm 1 mps 636 mmHg 86%
    07:00 +5°C° 0 mm 1 mps 637 mmHg 75%
    08:00 +7°C° 0 mm 2 mps 638 mmHg 65%
    09:00 +10°C° 0 mm 2 mps 639 mmHg 54%
    10:00 +12°C° 0 mm 2 mps 639 mmHg 50%
    11:00 +12°C° 0 mm 3 mps 639 mmHg 47%
    12:00 +13°C° 0 mm 3 mps 640 mmHg 43%
    13:00 +13°C° 0 mm 3 mps 639 mmHg 44%
    14:00 +13°C° 0 mm 3 mps 639 mmHg 45%
    15:00 +13°C° 0 mm 3 mps 638 mmHg 47%
    16:00 +11°C° 0 mm 3 mps 637 mmHg 57%
    17:00 +8°C° 0 mm 2 mps 637 mmHg 67%
    18:00 +6°C° 0 mm 2 mps 636 mmHg 77%
    19:00 +5°C° 0 mm 2 mps 635 mmHg 80%
    20:00 +4°C° 0 mm 2 mps 635 mmHg 82%
    21:00 +2°C° 0 mm 2 mps 635 mmHg 85%
    22:00 +2°C° 0 mm 2 mps 635 mmHg 84%
    23:00 +2°C° 0 mm 2 mps 634 mmHg 82%

    31 March, Friday

    Time Temperature Precipitation Wind Pressure Humidity
    00:00 +2°C° 0 mm 2 mps 634 mmHg 81%
    01:00 +2°C° 0 mm 2 mps 634 mmHg 79%
    02:00 +2°C° 0 mm 2 mps 634 mmHg 77%
    03:00 +2°C° 0 mm 2 mps 633 mmHg 76%
    04:00 +2°C° 0 mm 2 mps 633 mmHg 73%
    05:00 +3°C° 0 mm 1 mps 634 mmHg 71%
    06:00 +3°C° 0 mm 1 mps 634 mmHg 68%
    07:00 +5°C° 0 mm 1 mps 635 mmHg 62%
    08:00 +7°C° 0 mm 1 mps 636 mmHg 56%
    09:00 +9°C° 0 mm 1 mps 637 mmHg 50%
    10:00 +10°C° 0.1 mm 1 mps 637 mmHg 52%
    11:00 +9°C° 0.1 mm 2 mps 637 mmHg 55%
    12:00 +10°C° 0.1 mm 2 mps 637 mmHg 58%
    13:00 +9°C° 0.2 mm 2 mps 637 mmHg 61%
    14:00 +9°C° 0.2 mm 2 mps 636 mmHg 65%
    15:00 +8°C° 0.2 mm 2 mps 636 mmHg 69%
    16:00 +8°C° 0.2 mm 1 mps 635 mmHg 76%
    17:00 +7°C° 0.2 mm 1 mps 635 mmHg 83%
    18:00 +6°C° 0.2 mm 1 mps 634 mmHg 90%
    19:00 +5°C° 0.2 mm 1 mps 634 mmHg 92%
    20:00 +4°C° 0.2 mm 1 mps 634 mmHg 94%
    21:00 +3°C° 0.2 mm 0 mps 634 mmHg 96%
    22:00 +3°C° 0.1 mm 1 mps 634 mmHg 96%
    23:00 +3°C° 0.1 mm 1 mps 633 mmHg 97%

    1 April, Saturday

    Time Temperature Precipitation Wind Pressure Humidity
    00:00 +3°C° 0.1 mm 1 mps 633 mmHg 97%
    01:00 +3°C° 0.1 mm 1 mps 632 mmHg 96%
    02:00 +2°C° 0.1 mm 1 mps 632 mmHg 96%
    03:00 +2°C° 0.1 mm 1 mps 631 mmHg 96%
    04:00 +2°C° 0.1 mm 1 mps 631 mmHg 94%
    05:00 +2°C° 0.1 mm 1 mps 631 mmHg 93%
    06:00 +1°C° 0.1 mm 1 mps 631 mmHg 91%
    07:00 +3°C° 0.3 mm 1 mps 631 mmHg 86%
    08:00 +3°C° 0.3 mm 2 mps 632 mmHg 82%
    09:00 +5°C° 0.3 mm 2 mps 633 mmHg 77%
    10:00 +3°C° 1.2 mm 3 mps 633 mmHg 78%
    11:00 +3°C° 1.2 mm 3 mps 632 mmHg 80%
    12:00 +3°C° 1.2 mm 4 mps 632 mmHg 81%
    13:00 +3°C° 0.6 mm 4 mps 632 mmHg 81%
    14:00 +1°C° 0.6 mm 4 mps 632 mmHg 80%
    15:00 +1°C° 0.6 mm 4 mps 632 mmHg 79%
    16:00 +2°C° 0.1 mm 3 mps 632 mmHg 81%
    17:00 +1°C° 0.1 mm 3 mps 632 mmHg 83%
    18:00 0°C° 0.1 mm 3 mps 632 mmHg 85%
    19:00 0°C° 0 mm 3 mps 632 mmHg 85%
    20:00 -1°C° 0 mm 3 mps 632 mmHg 85%
    21:00 -1°C° 0 mm 3 mps 633 mmHg 86%
    22:00 -2°C° 0 mm 3 mps 633 mmHg 86%
    23:00 -2°C° 0 mm 3 mps 633 mmHg 86%

    2 April, Sunday

    Time Temperature Precipitation Wind Pressure Humidity
    00:00 -2°C° 0 mm 3 mps 633 mmHg 86%
    01:00 -2°C° 0 mm 3 mps 632 mmHg 86%
    02:00 -2°C° 0 mm 3 mps 632 mmHg 86%
    03:00 -2°C° 0 mm 3 mps 632 mmHg 86%
    04:00 -2°C° 0.1 mm 3 mps 632 mmHg 86%
    05:00 -2°C° 0.1 mm 3 mps 633 mmHg 86%
    06:00 -2°C° 0.1 mm 3 mps 633 mmHg 87%
    07:00 0°C° 0 mm 3 mps 634 mmHg 81%
    08:00 +1°C° 0 mm 3 mps 635 mmHg 75%
    09:00 +3°C° 0 mm 3 mps 636 mmHg 70%
    10:00 +4°C° 0 mm 3 mps 636 mmHg 67%
    11:00 +5°C° 0 mm 3 mps 636 mmHg 64%
    12:00 +7°C° 0 mm 3 mps 636 mmHg 61%
    13:00 +7°C° 0 mm 3 mps 636 mmHg 61%
    14:00 +7°C° 0 mm 3 mps 636 mmHg 61%
    15:00 +7°C° 0 mm 3 mps 636 mmHg 61%
    16:00 +6°C° 0 mm 2 mps 636 mmHg 68%
    17:00 +4°C° 0 mm 2 mps 636 mmHg 76%
    18:00 +3°C° 0 mm 2 mps 635 mmHg 83%
    19:00 +2°C° 0 mm 2 mps 636 mmHg 84%
    20:00 +1°C° 0 mm 2 mps 636 mmHg 86%
    21:00 -1°C° 0 mm 2 mps 636 mmHg 87%
    22:00 -1°C° 0 mm 2 mps 636 mmHg 86%
    23:00 -1°C° 0 mm 2 mps 636 mmHg 84%
    Show more